Location: *
(48.4333°N, 5.0333°W)
Time: 16:53:44
(UTC+00:00)

STARLINK-2708 - Pass Details

Date: 31 July 2021
Orbit: 546 x 548 km, 53.1° (Epoch: 28 September)

Event Time Altitude Azimuth Distance (km) Brightness Sun altitude
Rises 20:47:44 0° 286° (WNW) 2,704 8.6 -7.6°
Reaches altitude 10° 20:51:06 10° 256° (WSW) 1,807 6.8 -8.1°
Maximum altitude 20:52:52 13° 231° (SW) 1,648 6.2 -8.3°
Drops below altitude 10° 20:54:37 10° 205° (SSW) 1,802 6.1 -8.5°
Enters shadow 20:57:31 - 179° (S) 2,542 6.6 -8.9°
